{"data":{"norad_id":63056,"epoch":"2026-05-25T01:58:12.104256Z","epoch_age_seconds":68251,"freshness":"FRESH","line1":"1 63056U 25035E   26145.08208454  .00176269  00000+0  13461-2 0  9991","line2":"2 63056  43.0001 275.0323 0001235  58.6909 301.4080 15.70878765 73235","mean_motion":15.70878765,"eccentricity":0.0001235,"inclination_deg":43.0001,"raan_deg":275.0323,"arg_perigee_deg":58.6909,"mean_anomaly_deg":301.408,"bstar":0.0013461,"rev_number":7323,"period_min":91.668436297183,"perigee_km":355.55255284568,"apogee_km":357.21597959844,"semimajor_km":6734.5212662221,"source":"CELESTRAK","updated_at":"2026-05-25T13:38:19.871711Z"}}